| time (UTC) | temp F | wind direction | speed knots | gust knots | rain 1hr in | rain 24hr in | rain mn in | humidity % | barometer mb |
| 20260507151531 | 88 | 10 | 7.0 | 13.9 | 0.00 | 0.00 | 0.00 | 57 | 1002.9 |
| 20260507151008 | 88 | 335 | 7.8 | 22.6 | 0.00 | 0.00 | 0.00 | 59 | 1002.9 |
| 20260507150439 | 88 | 338 | 6.1 | 22.6 | 0.00 | 0.00 | 0.00 | 56 | 1003.2 |
| 20260507145914 | 88 | 353 | 6.1 | 16.5 | 0.00 | 0.00 | 0.00 | 58 | 1003.2 |
| 20260507145344 | 87 | 6 | 7.0 | 18.2 | 0.00 | 0.00 | 0.00 | 60 | 1003.6 |
| 20260507144819 | 87 | 327 | 9.6 | 18.2 | 0.00 | 0.00 | 0.00 | 59 | 1003.7 |
| 20260507144318 | 87 | 353 | 7.8 | 15.6 | 0.00 | 0.00 | 0.00 | 58 | 1003.9 |
| 20260507143819 | 87 | 340 | 5.2 | 15.6 | 0.00 | 0.00 | 0.00 | 58 | 1004.0 |
| 20260507143318 | 87 | 5 | 5.2 | 12.2 | 0.00 | 0.00 | 0.00 | 61 | 1004.3 |
| 20260507142818 | 86 | 6 | 6.1 | 13.9 | 0.00 | 0.00 | 0.00 | 61 | 1004.3 |
| 20260507142253 | 86 | 64 | 7.0 | 14.8 | 0.00 | 0.00 | 0.00 | 60 | 1004.5 |
| 20260507141751 | 86 | 358 | 6.1 | 14.8 | 0.00 | 0.00 | 0.00 | 60 | 1004.7 |
| 20260507141241 | 86 | 314 | 5.2 | 10.4 | 0.00 | 0.00 | 0.00 | 60 | 1004.7 |
| 20260507140741 | 86 | 8 | 4.3 | 11.3 | 0.00 | 0.00 | 0.00 | 60 | 1005.1 |
| 20260507140444 | 86 | 349 | 3.5 | 11.3 | 0.00 | 0.00 | 0.00 | 62 | 1005.0 |
| 20260507135649 | 86 | 28 | 5.2 | 16.5 | 0.00 | 0.00 | 0.00 | 64 | 1005.4 |
| 20260507135122 | 85 | 31 | 5.2 | 16.5 | 0.00 | 0.00 | 0.00 | 61 | 1005.6 |
| 20260507134557 | 85 | 331 | 6.1 | 13.0 | 0.00 | 0.00 | 0.00 | 63 | 1005.7 |
| 20260507134052 | 85 | 308 | 5.2 | 13.0 | 0.00 | 0.00 | 0.00 | 62 | 1005.9 |
| 20260507133815 | 85 | 332 | 5.2 | 12.2 | 0.00 | 0.00 | 0.00 | 63 | 1006.0 |
| 20260507133017 | 84 | 36 | 5.2 | 12.2 | 0.00 | 0.00 | 0.00 | 64 | 1006.0 |
| 20260507132507 | 83 | 12 | 5.2 | 10.4 | 0.00 | 0.00 | 0.00 | 66 | 1006.1 |
| 20260507132006 | 83 | 29 | 4.3 | 10.4 | 0.00 | 0.00 | 0.00 | 65 | 1006.2 |
| 20260507131504 | 83 | 26 | 5.2 | 12.2 | 0.00 | 0.00 | 0.00 | 66 | 1006.3 |
| 20260507130939 | 83 | 357 | 4.3 | 12.2 | 0.00 | 0.00 | 0.00 | 66 | 1006.4 |
| 20260507130429 | 83 | 47 | 3.5 | 7.8 | 0.00 | 0.00 | 0.00 | 67 | 1006.6 |
| 20260507125910 | 81 | 305 | 3.5 | 7.0 | 0.00 | 0.00 | 0.00 | 69 | 1006.7 |
| 20260507125902 | 82 | 21 | 3.5 | 7.8 | 0.00 | 0.00 | 0.00 | 69 | 1006.7 |
| 20260507124836 | 81 | 33 | 3.5 | 9.6 | 0.00 | 0.00 | 0.00 | 69 | 1006.8 |
| 20260507124316 | 80 | 16 | 3.5 | 9.6 | 0.00 | 0.00 | 0.00 | 70 | 1006.9 |
| 20260507123817 | 80 | 0 | 3.5 | 11.3 | 0.00 | 0.00 | 0.00 | 69 | 1007.0 |
| 20260507123317 | 80 | 33 | 3.5 | 11.3 | 0.00 | 0.00 | 0.00 | 69 | 1007.1 |
| 20260507123048 | 80 | 7 | 2.6 | 5.2 | 0.00 | 0.00 | 0.00 | 69 | 1007.2 |
| 20260507122314 | 80 | 10 | 3.5 | 9.6 | 0.00 | 0.00 | 0.00 | 69 | 1007.2 |
| 20260507121747 | 80 | 343 | 2.6 | 9.6 | 0.00 | 0.00 | 0.00 | 69 | 1007.1 |
| 20260507121242 | 80 | 16 | 2.6 | 6.1 | 0.00 | 0.00 | 0.00 | 71 | 1007.1 |
| 20260507120714 | 80 | 301 | 2.6 | 6.1 | 0.00 | 0.00 | 0.00 | 70 | 1007.1 |
| 20260507120220 | 80 | 330 | 2.6 | 5.2 | 0.00 | 0.00 | 0.00 | 71 | 1007.2 |
| 20260507120211 | 80 | 12 | 1.7 | 5.2 | 0.00 | 0.00 | 0.00 | 70 | 1007.1 |
| 20260507115144 | 80 | 321 | 2.6 | 10.4 | 0.00 | 0.00 | 0.00 | 70 | 1007.2 |
| 20260507114844 | 80 | 289 | 2.6 | 6.1 | 0.00 | 0.00 | 0.00 | 70 | 1007.2 |
| 20260507114044 | 80 | 28 | 2.6 | 7.8 | 0.00 | 0.00 | 0.00 | 69 | 1007.2 |
| 20260507113539 | 80 | 29 | 3.5 | 7.8 | 0.00 | 0.00 | 0.00 | 69 | 1007.1 |
| 20260507113030 | 80 | 338 | 3.5 | 7.8 | 0.00 | 0.00 | 0.00 | 69 | 1007.2 |
| 20260507112529 | 80 | 351 | 4.3 | 7.8 | 0.00 | 0.00 | 0.00 | 69 | 1007.1 |
| 20260507112000 | 80 | 14 | 3.5 | 7.8 | 0.00 | 0.00 | 0.00 | 70 | 1006.9 |
| 20260507111432 | 80 | 359 | 3.5 | 8.7 | 0.00 | 0.00 | 0.00 | 70 | 1007.0 |
| 20260507111201 | 80 | 15 | 4.3 | 10.4 | 0.00 | 0.00 | 0.00 | 70 | 1006.7 |
| 20260507110658 | 80 | 64 | 5.2 | 11.3 | 0.00 | 0.00 | 0.00 | 70 | 1006.6 |
| 20260507105926 | 80 | 47 | 5.2 | 11.3 | 0.00 | 0.00 | 0.00 | 70 | 1006.5 |
| 20260507105423 | 79 | 4 | 5.2 | 10.4 | 0.00 | 0.00 | 0.00 | 70 | 1006.4 |
| 20260507104919 | 79 | 2 | 4.3 | 11.3 | 0.00 | 0.00 | 0.00 | 72 | 1006.3 |
| 20260507104851 | 78 | 337 | 4.3 | 11.3 | 0.00 | 0.00 | 0.00 | 72 | 1006.4 |
| 20260507103830 | 78 | 4 | 4.3 | 10.4 | 0.00 | 0.00 | 0.00 | 73 | 1006.2 |
| 20260507103330 | 78 | 35 | 5.2 | 10.4 | 0.00 | 0.00 | 0.00 | 73 | 1006.3 |
| 20260507102831 | 78 | 24 | 5.2 | 9.6 | 0.00 | 0.00 | 0.00 | 73 | 1006.3 |
| 20260507102327 | 78 | 16 | 4.3 | 9.6 | 0.00 | 0.00 | 0.00 | 73 | 1006.4 |
| 20260507101823 | 78 | 349 | 4.3 | 9.6 | 0.00 | 0.00 | 0.00 | 73 | 1006.4 |
| 20260507101323 | 78 | 8 | 4.3 | 8.7 | 0.00 | 0.00 | 0.00 | 73 | 1006.4 |
| 20260507100816 | 78 | 345 | 4.3 | 10.4 | 0.00 | 0.00 | 0.00 | 73 | 1006.4 |
| 20260507100314 | 78 | 332 | 4.3 | 10.4 | 0.00 | 0.00 | 0.00 | 73 | 1006.4 |
| 20260507095813 | 78 | 29 | 4.3 | 7.8 | 0.00 | 0.00 | 0.00 | 73 | 1006.3 |
| 20260507095542 | 78 | 1 | 5.2 | 9.6 | 0.00 | 0.00 | 0.00 | 73 | 1006.3 |
| 20260507094808 | 78 | 295 | 4.3 | 9.6 | 0.00 | 0.00 | 0.00 | 72 | 1006.5 |
| 20260507094246 | 78 | 323 | 4.3 | 10.4 | 0.00 | 0.00 | 0.00 | 72 | 1006.6 |
| 20260507093748 | 78 | 20 | 4.3 | 10.4 | 0.00 | 0.00 | 0.00 | 71 | 1006.5 |
| 20260507093220 | 78 | 330 | 5.2 | 14.8 | 0.00 | 0.00 | 0.00 | 71 | 1006.6 |
| 20260507092718 | 78 | 2 | 6.1 | 14.8 | 0.00 | 0.00 | 0.00 | 71 | 1006.5 |
| 20260507092202 | 78 | 305 | 4.3 | 10.4 | 0.00 | 0.00 | 0.00 | 71 | 1006.7 |
| 20260507091700 | 78 | 278 | 5.2 | 13.0 | 0.00 | 0.00 | 0.00 | 71 | 1006.6 |
| 20260507091132 | 79 | 330 | 5.2 | 13.0 | 0.00 | 0.00 | 0.00 | 71 | 1006.6 |
| 20260507090627 | 79 | 24 | 7.0 | 15.6 | 0.00 | 0.00 | 0.00 | 71 | 1006.5 |
| 20260507090124 | 79 | 6 | 7.0 | 15.6 | 0.00 | 0.00 | 0.00 | 71 | 1006.4 |
| 20260507085622 | 78 | 10 | 7.0 | 13.9 | 0.00 | 0.00 | 0.00 | 71 | 1006.3 |
| 20260507085116 | 78 | 0 | 6.1 | 13.9 | 0.00 | 0.00 | 0.00 | 71 | 1006.1 |
| 20260507084600 | 78 | 339 | 4.3 | 13.0 | 0.00 | 0.00 | 0.00 | 71 | 1006.2 |
| 20260507084326 | 78 | 353 | 4.3 | 9.6 | 0.00 | 0.00 | 0.00 | 71 | 1006.4 |
| 20260507083805 | 79 | 353 | 4.3 | 11.3 | 0.00 | 0.00 | 0.00 | 71 | 1006.4 |
| 20260507083035 | 79 | 329 | 5.2 | 11.3 | 0.00 | 0.00 | 0.00 | 71 | 1006.5 |
| 20260507082509 | 79 | 10 | 6.1 | 13.0 | 0.00 | 0.00 | 0.00 | 70 | 1006.4 |
| 20260507082005 | 79 | 21 | 7.0 | 16.5 | 0.00 | 0.00 | 0.00 | 70 | 1006.4 |
| 20260507081503 | 79 | 12 | 7.0 | 16.5 | 0.00 | 0.00 | 0.00 | 70 | 1006.5 |
| 20260507080954 | 79 | 326 | 8.7 | 17.4 | 0.00 | 0.00 | 0.00 | 70 | 1006.5 |
| 20260507080432 | 79 | 303 | 7.8 | 17.4 | 0.00 | 0.00 | 0.00 | 70 | 1006.4 |
| 20260507075930 | 79 | 337 | 7.0 | 16.5 | 0.00 | 0.00 | 0.00 | 71 | 1006.4 |
| 20260507075430 | 79 | 345 | 6.1 | 16.5 | 0.00 | 0.00 | 0.00 | 71 | 1006.6 |
| 20260507074928 | 79 | 334 | 6.1 | 13.0 | 0.00 | 0.00 | 0.00 | 71 | 1006.6 |
| 20260507074404 | 79 | 314 | 7.0 | 17.4 | 0.00 | 0.00 | 0.00 | 71 | 1006.6 |
| 20260507074134 | 79 | 334 | 7.8 | 17.4 | 0.00 | 0.00 | 0.00 | 71 | 1006.6 |
| 20260507073358 | 79 | 20 | 7.0 | 14.8 | 0.00 | 0.00 | 0.00 | 71 | 1006.8 |
| 20260507072856 | 79 | 11 | 7.0 | 17.4 | 0.00 | 0.00 | 0.00 | 71 | 1007.0 |
| 20260507072331 | 79 | 3 | 7.8 | 17.4 | 0.00 | 0.00 | 0.00 | 71 | 1007.1 |
| 20260507071829 | 78 | 330 | 6.1 | 12.2 | 0.00 | 0.00 | 0.00 | 73 | 1007.2 |
| 20260507071326 | 78 | 8 | 5.2 | 11.3 | 0.00 | 0.00 | 0.00 | 73 | 1007.2 |
| 20260507070822 | 78 | 0 | 5.2 | 13.0 | 0.00 | 0.00 | 0.00 | 73 | 1007.3 |
| 20260507070322 | 78 | 343 | 5.2 | 13.0 | 0.00 | 0.00 | 0.00 | 73 | 1007.4 |
| 20260507065820 | 78 | 356 | 6.1 | 14.8 | 0.00 | 0.00 | 0.00 | 73 | 1007.4 |
| 20260507065316 | 78 | 351 | 5.2 | 14.8 | 0.00 | 0.00 | 0.00 | 74 | 1007.5 |
| 20260507064818 | 78 | 8 | 5.2 | 12.2 | 0.00 | 0.00 | 0.00 | 74 | 1007.7 |
| 20260507064251 | 78 | 340 | 6.1 | 13.0 | 0.00 | 0.00 | 0.00 | 74 | 1007.8 |
| 20260507063748 | 78 | 332 | 7.0 | 13.0 | 0.00 | 0.00 | 0.00 | 73 | 1007.8 |
| 20260507063501 | 78 | 3 | 6.1 | 12.2 | 0.00 | 0.00 | 0.00 | 74 | 1007.9 |
| 20260507062731 | 78 | 351 | 5.2 | 12.2 | 0.00 | 0.00 | 0.00 | 74 | 1007.9 |
| 20260507062228 | 78 | 343 | 5.2 | 13.9 | 0.00 | 0.00 | 0.00 | 74 | 1008.1 |
| 20260507061728 | 78 | 350 | 4.3 | 13.9 | 0.00 | 0.00 | 0.00 | 75 | 1008.0 |
| 20260507061218 | 78 | 0 | 4.3 | 9.6 | 0.00 | 0.00 | 0.00 | 75 | 1008.0 |
| 20260507060652 | 78 | 355 | 4.3 | 9.6 | 0.00 | 0.00 | 0.00 | 75 | 1008.1 |
| 20260507060133 | 78 | 14 | 4.3 | 9.6 | 0.00 | 0.00 | 0.00 | 74 | 1008.1 |
| 20260507055633 | 78 | 352 | 4.3 | 9.6 | 0.00 | 0.00 | 0.00 | 74 | 1008.1 |
| 20260507055336 | 78 | 0 | 5.2 | 11.3 | 0.00 | 0.00 | 0.00 | 74 | 1008.2 |
| 20260507054544 | 78 | 343 | 5.2 | 11.3 | 0.00 | 0.00 | 0.00 | 74 | 1008.4 |
| 20260507054044 | 78 | 14 | 5.2 | 10.4 | 0.00 | 0.00 | 0.00 | 74 | 1008.6 |
| 20260507053514 | 78 | 20 | 5.2 | 10.4 | 0.00 | 0.00 | 0.00 | 75 | 1008.5 |
| 20260507053011 | 78 | 357 | 4.3 | 10.4 | 0.00 | 0.00 | 0.00 | 76 | 1008.7 |
| 20260507052447 | 77 | 19 | 3.5 | 12.2 | 0.00 | 0.00 | 0.00 | 77 | 1008.9 |
| 20260507051947 | 76 | 1 | 3.5 | 12.2 | 0.00 | 0.00 | 0.00 | 80 | 1009.2 |
| 20260507051419 | 75 | 339 | 2.6 | 13.0 | 0.00 | 0.00 | 0.00 | 82 | 1009.3 |
| 20260507050905 | 74 | 2 | 2.6 | 13.0 | 0.00 | 0.00 | 0.00 | 84 | 1009.3 |
| 20260507050355 | 73 | 26 | 1.7 | 8.7 | 0.00 | 0.00 | 0.00 | 86 | 1009.4 |
| 20260507045831 | 72 | 15 | 1.7 | 8.7 | 0.00 | 0.00 | 0.00 | 89 | 1009.5 |
| 20260507045330 | 71 | 24 | 1.7 | 7.0 | 0.00 | 0.00 | 0.00 | 93 | 1009.5 |
| 20260507044828 | 70 | 70 | 2.6 | 9.6 | 0.00 | 0.00 | 0.00 | 95 | 1009.6 |
| 20260507044327 | 69 | 52 | 1.7 | 9.6 | 0.00 | 0.00 | 0.00 | 98 | 1009.6 |
| 20260507044039 | 68 | 304 | 0.0 | 4.3 | 0.00 | 0.00 | 0.00 | 98 | 1009.8 |
| 20260507043800 | 68 | 347 | 0.9 | 6.1 | 0.00 | 0.00 | 0.00 | 98 | 1009.7 |
| 20260507042735 | 68 | 56 | 0.0 | 4.3 | 0.00 | 0.00 | 0.00 | 98 | 1009.7 |
| 20260507042234 | 68 | 347 | 0.0 | 2.6 | 0.00 | 0.00 | 0.00 | 98 | 1009.9 |
| 20260507041729 | 67 | 194 | 0.0 | 2.6 | 0.00 | 0.00 | 0.00 | 98 | 1010.0 |
| 20260507041458 | 67 | 209 | 0.0 | 2.6 | 0.00 | 0.00 | 0.00 | 97 | 1010.1 |
| 20260507040726 | 67 | 214 | 0.0 | 0.9 | 0.00 | 0.00 | 0.00 | 97 | 1010.2 |
| 20260507040225 | 67 | 97 | 0.0 | 0.0 | 0.00 | 0.00 | 0.00 | 97 | 1010.3 |
| 20260507035726 | 67 | 97 | 0.0 | 0.0 | 0.00 | 0.00 | 0.00 | 97 | 1010.4 |
| 20260507035202 | 67 | 97 | 0.0 | 1.7 | 0.00 | 0.00 | 0.00 | 97 | 1010.3 |
| 20260507034924 | 67 | 97 | 0.0 | 1.7 | 0.00 | 0.00 | 0.00 | 96 | 1010.3 |
| 20260507034136 | 67 | 91 | 0.0 | 1.7 | 0.00 | 0.00 | 0.00 | 97 | 1010.3 |
| 20260507033630 | 67 | 91 | 0.0 | 1.7 | 0.00 | 0.00 | 0.00 | 97 | 1010.4 |
| 20260507033126 | 67 | 305 | 0.0 | 1.7 | 0.00 | 0.00 | 0.00 | 97 | 1010.5 |
| 20260507032858 | 67 | 18 | 0.0 | 0.0 | 0.00 | 0.00 | 0.00 | 96 | 1010.6 |
| 20260507032107 | 67 | 18 | 0.0 | 0.0 | 0.00 | 0.00 | 0.00 | 97 | 1010.7 |
| 20260507031604 | 67 | 18 | 0.0 | 0.0 | 0.00 | 0.00 | 0.00 | 96 | 1010.7 |
| 20260507031106 | 67 | 18 | 0.0 | 0.0 | 0.00 | 0.00 | 0.00 | 96 | 1010.7 |
| 20260507030549 | 67 | 342 | 0.0 | 0.0 | 0.00 | 0.00 | 0.00 | 96 | 1010.9 |
| 20260507030026 | 67 | 342 | 0.0 | 0.0 | 0.00 | 0.00 | 0.00 | 96 | 1011.0 |
| 20260507025458 | 67 | 342 | 0.0 | 0.0 | 0.00 | 0.00 | 0.00 | 95 | 1011.1 |
| 20260507024956 | 67 | 342 | 0.0 | 0.0 | 0.00 | 0.00 | 0.00 | 95 | 1011.1 |
| 20260507024454 | 67 | 342 | 0.0 | 0.0 | 0.00 | 0.00 | 0.00 | 95 | 1011.1 |
| 20260507023930 | 68 | 342 | 0.0 | 0.0 | 0.00 | 0.00 | 0.00 | 95 | 1011.1 |
| 20260507023430 | 68 | 342 | 0.0 | 0.0 | 0.00 | 0.00 | 0.00 | 95 | 1011.2 |
| 20260507022903 | 68 | 342 | 0.0 | 0.0 | 0.00 | 0.00 | 0.00 | 95 | 1011.2 |
| 20260507022400 | 68 | 342 | 0.0 | 0.0 | 0.00 | 0.00 | 0.00 | 95 | 1011.4 |
| 20260507021852 | 68 | 342 | 0.0 | 1.7 | 0.00 | 0.00 | 0.00 | 95 | 1011.3 |
| 20260507021350 | 68 | 342 | 0.0 | 1.7 | 0.00 | 0.00 | 0.00 | 95 | 1011.4 |
| 20260507020851 | 68 | 34 | 0.0 | 0.9 | 0.00 | 0.00 | 0.00 | 95 | 1011.5 |
| 20260507020324 | 68 | 83 | 0.0 | 1.7 | 0.00 | 0.00 | 0.00 | 95 | 1011.4 |
| 20260507015812 | 69 | 25 | 0.0 | 1.7 | 0.00 | 0.00 | 0.00 | 95 | 1011.5 |
| 20260507015247 | 69 | 53 | 0.0 | 1.7 | 0.00 | 0.00 | 0.00 | 95 | 1011.5 |
| 20260507014736 | 69 | 53 | 0.0 | 0.0 | 0.00 | 0.00 | 0.00 | 95 | 1011.4 |
| 20260507014235 | 69 | 53 | 0.0 | 0.0 | 0.00 | 0.00 | 0.00 | 95 | 1011.5 |
| 20260507013708 | 69 | 53 | 0.0 | 0.0 | 0.00 | 0.00 | 0.00 | 95 | 1011.5 |
| 20260507013204 | 69 | 53 | 0.0 | 1.7 | 0.00 | 0.00 | 0.00 | 95 | 1011.5 |
| 20260507012656 | 69 | 53 | 0.0 | 1.7 | 0.00 | 0.00 | 0.00 | 95 | 1011.6 |
| 20260507012129 | 69 | 53 | 0.0 | 0.0 | 0.00 | 0.00 | 0.00 | 95 | 1011.6 |
| 20260507011615 | 69 | 53 | 0.0 | 2.6 | 0.00 | 0.00 | 0.00 | 95 | 1011.8 |
| 20260507011341 | 69 | 53 | 0.0 | 2.6 | 0.00 | 0.00 | 0.00 | 95 | 1011.9 |
| 20260507010612 | 69 | 53 | 0.9 | 3.5 | 0.00 | 0.00 | 0.00 | 94 | 1011.9 |
| 20260507010048 | 69 | 226 | 0.0 | 3.5 | 0.00 | 0.00 | 0.00 | 94 | 1011.8 |
| 20260507005550 | 69 | 320 | 0.0 | 0.0 | 0.00 | 0.00 | 0.00 | 94 | 1011.6 |
| 20260507005043 | 69 | 320 | 0.0 | 0.0 | 0.00 | 0.00 | 0.00 | 94 | 1011.6 |
| 20260507004539 | 70 | 320 | 0.0 | 0.0 | 0.00 | 0.00 | 0.00 | 94 | 1011.7 |
| 20260507004036 | 70 | 320 | 0.0 | 0.0 | 0.00 | 0.00 | 0.00 | 94 | 1011.7 |
| 20260507003758 | 70 | 320 | 0.0 | 0.0 | 0.00 | 0.00 | 0.00 | 94 | 1011.8 |
| 20260507003233 | 70 | 320 | 0.0 | 0.0 | 0.00 | 0.00 | 0.00 | 94 | 1011.8 |
| 20260507002450 | 70 | 320 | 0.0 | 0.0 | 0.00 | 0.00 | 0.00 | 94 | 1011.7 |
| 20260507002211 | 70 | 320 | 0.0 | 0.0 | 0.00 | 0.00 | 0.00 | 94 | 1011.8 |
| 20260507002054 | 70 | 320 | 0.0 | 0.0 | 0.00 | 0.00 | 0.00 | 94 | 1011.9 |
| 20260507000936 | 70 | 320 | 0.0 | 0.0 | 0.00 | 0.00 | 0.00 | 93 | 1011.9 |
| 20260507000435 | 71 | 320 | 0.0 | 0.0 | 0.00 | 0.00 | 0.00 | 93 | 1011.9 |
| 20260507000428 | 71 | 320 | 0.0 | 0.0 | 0.00 | 0.00 | 0.00 | 93 | 1011.8 |
| 20260506235430 | 71 | 320 | 0.0 | 0.0 | 0.00 | 0.00 | 0.00 | 93 | 1011.9 |
| 20260506235148 | 71 | 320 | 0.0 | 0.0 | 0.00 | 0.00 | 0.00 | 93 | 1011.9 |
| 20260506234418 | 71 | 320 | 0.0 | 0.0 | 0.00 | 0.00 | 0.00 | 92 | 1011.9 |
| 20260506233905 | 71 | 320 | 0.0 | 0.0 | 0.00 | 0.00 | 0.00 | 92 | 1011.9 |
| 20260506233404 | 71 | 320 | 0.0 | 0.0 | 0.00 | 0.00 | 0.00 | 92 | 1012.0 |
| 20260506232904 | 71 | 266 | 0.0 | 0.0 | 0.00 | 0.00 | 0.00 | 92 | 1012.0 |
| 20260506232616 | 72 | 266 | 0.0 | 0.0 | 0.00 | 0.00 | 0.00 | 93 | 1011.9 |
| 20260506231818 | 71 | 266 | 0.0 | 0.0 | 0.00 | 0.00 | 0.00 | 93 | 1011.9 |
| 20260506231314 | 71 | 44 | 0.0 | 0.0 | 0.00 | 0.00 | 0.00 | 92 | 1011.8 |
| 20260506230806 | 72 | 44 | 0.0 | 0.0 | 0.00 | 0.00 | 0.00 | 92 | 1011.8 |
| 20260506230247 | 72 | 44 | 0.0 | 0.0 | 0.00 | 0.00 | 0.00 | 92 | 1011.8 |
| 20260506230017 | 72 | 337 | 0.0 | 0.0 | 0.00 | 0.00 | 0.00 | 91 | 1011.6 |
| 20260506225449 | 72 | 337 | 0.0 | 0.0 | 0.00 | 0.00 | 0.00 | 91 | 1011.7 |
| 20260506224718 | 72 | 337 | 0.0 | 0.0 | 0.00 | 0.00 | 0.00 | 91 | 1011.7 |
| 20260506224424 | 72 | 337 | 0.0 | 0.0 | 0.00 | 0.00 | 0.00 | 90 | 1011.7 |
| 20260506223624 | 73 | 337 | 0.0 | 0.0 | 0.00 | 0.00 | 0.00 | 89 | 1011.8 |
| 20260506223109 | 73 | 337 | 0.0 | 0.0 | 0.00 | 0.00 | 0.00 | 88 | 1011.6 |
| 20260506222605 | 73 | 337 | 0.0 | 0.0 | 0.00 | 0.00 | 0.00 | 88 | 1011.6 |
| 20260506222056 | 73 | 337 | 0.0 | 0.0 | 0.00 | 0.00 | 0.00 | 88 | 1011.6 |
| 20260506221829 | 74 | 337 | 0.0 | 0.0 | 0.00 | 0.00 | 0.00 | 87 | 1011.5 |
| 20260506221034 | 74 | 337 | 0.0 | 0.0 | 0.00 | 0.00 | 0.00 | 87 | 1011.6 |
| 20260506220534 | 74 | 337 | 0.0 | 0.0 | 0.00 | 0.00 | 0.00 | 86 | 1011.4 |
| 20260506220026 | 75 | 337 | 0.0 | 0.0 | 0.00 | 0.00 | 0.00 | 85 | 1011.4 |
| 20260506215516 | 75 | 337 | 0.0 | 0.0 | 0.00 | 0.00 | 0.00 | 85 | 1011.6 |
| 20260506215016 | 76 | 337 | 0.0 | 0.0 | 0.00 | 0.00 | 0.00 | 84 | 1011.4 |
| 20260506214516 | 76 | 337 | 0.0 | 0.0 | 0.00 | 0.00 | 0.00 | 83 | 1011.5 |
| 20260506214015 | 76 | 337 | 0.0 | 0.0 | 0.00 | 0.00 | 0.00 | 83 | 1011.4 |
| 20260506213504 | 77 | 337 | 0.0 | 0.0 | 0.00 | 0.00 | 0.00 | 82 | 1011.4 |
| 20260506213236 | 77 | 337 | 0.0 | 0.0 | 0.00 | 0.00 | 0.00 | 81 | 1011.5 |
| 20260506212720 | 78 | 337 | 0.0 | 0.0 | 0.00 | 0.00 | 0.00 | 81 | 1011.5 |
| 20260506212220 | 79 | 337 | 0.0 | 0.0 | 0.00 | 0.00 | 0.00 | 80 | 1011.5 |
| 20260506211426 | 79 | 337 | 0.0 | 0.0 | 0.00 | 0.00 | 0.00 | 78 | 1011.4 |
| 20260506210920 | 80 | 337 | 0.0 | 0.0 | 0.00 | 0.00 | 0.00 | 77 | 1011.4 |
| 20260506210356 | 81 | 337 | 0.0 | 0.0 | 0.00 | 0.00 | 0.00 | 76 | 1011.5 |
| 20260506205833 | 82 | 337 | 0.0 | 0.0 | 0.00 | 0.00 | 0.00 | 76 | 1011.6 |
| 20260506205559 | 82 | 337 | 0.0 | 0.9 | 0.00 | 0.00 | 0.00 | 75 | 1011.6 |
| 20260506204806 | 83 | 337 | 0.0 | 1.7 | 0.00 | 0.00 | 0.00 | 75 | 1011.5 |
| 20260506204303 | 84 | 22 | 0.0 | 0.9 | 0.00 | 0.00 | 0.00 | 74 | 1011.6 |
| 20260506203735 | 85 | 22 | 0.0 | 0.0 | 0.00 | 0.00 | 0.00 | 73 | 1011.7 |
| 20260506203218 | 85 | 22 | 0.0 | 0.0 | 0.00 | 0.00 | 0.00 | 72 | 1011.5 |
| 20260506202657 | 86 | 22 | 0.0 | 0.0 | 0.00 | 0.00 | 0.00 | 71 | 1011.6 |
| 20260506202128 | 87 | 22 | 0.0 | 0.0 | 0.00 | 0.00 | 0.00 | 70 | 1011.6 |
| 20260506201604 | 87 | 22 | 0.0 | 2.6 | 0.00 | 0.00 | 0.00 | 69 | 1011.5 |
| 20260506201039 | 88 | 22 | 0.0 | 2.6 | 0.00 | 0.00 | 0.00 | 67 | 1011.7 |
| 20260506200512 | 89 | 37 | 0.0 | 0.0 | 0.00 | 0.00 | 0.00 | 65 | 1011.6 |
| 20260506195947 | 90 | 37 | 0.0 | 0.0 | 0.00 | 0.00 | 0.00 | 65 | 1011.7 |
| 20260506195420 | 90 | 37 | 0.0 | 1.7 | 0.00 | 0.00 | 0.00 | 65 | 1011.8 |
| 20260506194919 | 90 | 37 | 0.9 | 2.6 | 0.00 | 0.00 | 0.00 | 64 | 1011.9 |
| 20260506194413 | 91 | 10 | 0.0 | 2.6 | 0.00 | 0.00 | 0.00 | 61 | 1011.7 |
| 20260506193850 | 91 | 357 | 0.0 | 2.6 | 0.00 | 0.00 | 0.00 | 62 | 1011.8 |
| 20260506193324 | 91 | 344 | 0.9 | 6.1 | 0.00 | 0.00 | 0.00 | 61 | 1011.8 |
| 20260506192818 | 91 | 18 | 0.9 | 6.1 | 0.00 | 0.00 | 0.00 | 61 | 1011.8 |
| 20260506192250 | 91 | 346 | 0.9 | 2.6 | 0.00 | 0.00 | 0.00 | 64 | 1011.8 |
| 20260506191747 | 91 | 37 | 0.9 | 3.5 | 0.00 | 0.00 | 0.00 | 62 | 1011.7 |
| 20260506191243 | 91 | 36 | 1.7 | 4.3 | 0.00 | 0.00 | 0.00 | 63 | 1011.8 |
| 20260506190718 | 91 | 353 | 0.9 | 4.3 | 0.00 | 0.00 | 0.00 | 61 | 1011.8 |
| 20260506190152 | 91 | 340 | 1.7 | 7.0 | 0.00 | 0.00 | 0.00 | 61 | 1011.8 |
| 20260506185640 | 91 | 328 | 1.7 | 7.0 | 0.00 | 0.00 | 0.00 | 61 | 1012.0 |
| 20260506185410 | 90 | 28 | 0.9 | 5.2 | 0.00 | 0.00 | 0.00 | 63 | 1011.8 |
| 20260506184906 | 90 | 0 | 1.7 | 5.2 | 0.00 | 0.00 | 0.00 | 62 | 1011.8 |
| 20260506184111 | 90 | 15 | 1.7 | 5.2 | 0.00 | 0.00 | 0.00 | 62 | 1011.8 |
| 20260506183559 | 91 | 8 | 1.7 | 5.2 | 0.00 | 0.00 | 0.00 | 61 | 1011.8 |
| 20260506183033 | 90 | 358 | 1.7 | 7.8 | 0.00 | 0.00 | 0.00 | 62 | 1012.0 |
| 20260506182503 | 91 | 37 | 1.7 | 5.2 | 0.00 | 0.00 | 0.00 | 62 | 1012.0 |
| 20260506182226 | 91 | 24 | 1.7 | 7.0 | 0.00 | 0.00 | 0.00 | 61 | 1012.2 |
| 20260506181427 | 91 | 344 | 2.6 | 7.0 | 0.00 | 0.00 | 0.00 | 61 | 1012.1 |
| 20260506181155 | 91 | 359 | 3.5 | 8.7 | 0.00 | 0.00 | 0.00 | 61 | 1012.2 |
| 20260506180421 | 91 | 11 | 3.5 | 8.7 | 0.00 | 0.00 | 0.00 | 59 | 1012.3 |
| 20260506175853 | 92 | 15 | 2.6 | 7.0 | 0.00 | 0.00 | 0.00 | 60 | 1012.3 |
| 20260506175344 | 92 | 338 | 2.6 | 7.0 | 0.00 | 0.00 | 0.00 | 60 | 1012.4 |
| 20260506174843 | 92 | 359 | 2.6 | 7.0 | 0.00 | 0.00 | 0.00 | 60 | 1012.5 |
| 20260506174615 | 92 | 66 | 3.5 | 7.0 | 0.00 | 0.00 | 0.00 | 61 | 1012.5 |
| 20260506173814 | 92 | 349 | 3.5 | 8.7 | 0.00 | 0.00 | 0.00 | 61 | 1012.7 |
| 20260506173248 | 92 | 347 | 3.5 | 9.6 | 0.00 | 0.00 | 0.00 | 61 | 1012.8 |
| 20260506172732 | 92 | 335 | 3.5 | 9.6 | 0.00 | 0.00 | 0.00 | 61 | 1012.8 |
| 20260506172231 | 91 | 335 | 2.6 | 8.7 | 0.00 | 0.00 | 0.00 | 62 | 1012.9 |
| 20260506171730 | 91 | 16 | 2.6 | 9.6 | 0.00 | 0.00 | 0.00 | 62 | 1013.0 |
| 20260506171230 | 91 | 335 | 4.3 | 10.4 | 0.00 | 0.00 | 0.00 | 62 | 1012.9 |
| 20260506170704 | 91 | 303 | 5.2 | 9.6 | 0.00 | 0.00 | 0.00 | 61 | 1013.0 |
| 20260506170408 | 91 | 325 | 5.2 | 11.3 | 0.00 | 0.00 | 0.00 | 61 | 1013.1 |
| 20260506165627 | 90 | 323 | 4.3 | 11.3 | 0.00 | 0.00 | 0.00 | 61 | 1013.1 |
| 20260506165353 | 90 | 327 | 4.3 | 10.4 | 0.00 | 0.00 | 0.00 | 63 | 1013.3 |
| 20260506164618 | 90 | 335 | 4.3 | 10.4 | 0.00 | 0.00 | 0.00 | 62 | 1013.2 |
| 20260506164048 | 90 | 8 | 3.5 | 10.4 | 0.00 | 0.00 | 0.00 | 61 | 1013.4 |
| 20260506163523 | 90 | 322 | 3.5 | 10.4 | 0.00 | 0.00 | 0.00 | 63 | 1013.4 |
| 20260506163227 | 89 | 323 | 3.5 | 10.4 | 0.00 | 0.00 | 0.00 | 62 | 1013.6 |
| 20260506162427 | 89 | 342 | 4.3 | 10.4 | 0.00 | 0.00 | 0.00 | 64 | 1013.6 |
| 20260506161859 | 89 | 318 | 3.5 | 10.4 | 0.00 | 0.00 | 0.00 | 62 | 1013.8 |
| 20260506161618 | 90 | 331 | 1.7 | 6.1 | 0.00 | 0.00 | 0.00 | 64 | 1013.8 |
| 20260506160848 | 89 | 346 | 2.6 | 7.8 | 0.00 | 0.00 | 0.00 | 64 | 1014.0 |
| 20260506160337 | 89 | 30 | 3.5 | 7.8 | 0.00 | 0.00 | 0.00 | 64 | 1014.1 |
| 20260506155820 | 89 | 318 | 3.5 | 13.0 | 0.00 | 0.00 | 0.00 | 65 | 1014.2 |
| 20260506155320 | 89 | 2 | 3.5 | 13.0 | 0.00 | 0.00 | 0.00 | 65 | 1014.3 |
| 20260506155052 | 88 | 59 | 2.6 | 10.4 | 0.00 | 0.00 | 0.00 | 66 | 1014.4 |
| 20260506154324 | 88 | 325 | 4.3 | 9.6 | 0.00 | 0.00 | 0.00 | 66 | 1014.5 |
| 20260506153803 | 87 | 6 | 5.2 | 10.4 | 0.00 | 0.00 | 0.00 | 66 | 1014.5 |
| 20260506153245 | 87 | 341 | 4.3 | 9.6 | 0.00 | 0.00 | 0.00 | 66 | 1014.6 |
| 20260506152742 | 87 | 345 | 3.5 | 9.6 | 0.00 | 0.00 | 0.00 | 67 | 1014.9 |
| 20260506152217 | 87 | 359 | 3.5 | 8.7 | 0.00 | 0.00 | 0.00 | 67 | 1014.9 |